COSMOS 830

Satellite information

Favourite Embed

Satellite Type and Status

PAYLOADIN ORBIT

Key statistics

Satellite COSMOS 830 at a glance.

Uptime

17921

Days in orbit

Revolutions

≈ 12.5

Per day

Orbit

LEO

Low Earth Orbit

Inclination

74.0

Latest

Satellite identification and parameters

Extended collection of information and parameters for COSMOS 830.

Object identification

Identified? True

Debris? False

Object name: COSMOS 830

International designator: 1976-054F

Object number (NORAD): 8894

Object ID (CCSDS): 8894

Country: COMMONWEALTH OF INDEPENDENT STATES (CIS)

Current information (Y/N): Y

RCS size: MEDIUM

Orbital parameters

Period: 115.546 minutes

Inclination: 73.998 deg

SMA: 7858.337 km

Apoapsis: 1492.086 km

Periapsis: 1468.318 km

RAAN: 188.0362 deg

Eccentricy: 0.0015123

Argument of periapsis: 113.6896 deg

Mean anomaly: 60.0112 deg

Mean motion: 12.4625469 rev/day

Mean motion (dot): 0.00000002 rev/day2

B* drag term: 0.00012509 1/REarth

Two-line elements (TLE)

Creation date: July 9, 2025, 2:22 a.m.

Reference frame: TEME

Reference center: EARTH

Epoch: July 8, 2025, 5:30 p.m. UTC

TLE line 0: 0 COSMOS 830

TLE line 1: 1 08894U 76054F 25189.72951576 .00000002 00000-0 12509-3 0 9990

TLE line 2: 2 08894 73.9980 188.0362 0015123 113.6896 60.0112 12.46254690232085

Live tracking on map

Real-time ground track for satellite COSMOS 830.

In-orbit conjunctions

There are no conjunctions computed for COSMOS 830, at the moment. Check back to stay up to date, as we update our databases every day.

Go to all conjunctions

Associated space launch

Military communications satellites

COSMOS 830 was lifted into orbit during the mission ‘Kosmos-3M | Strela-1M 113-120’, on board a Kosmos-3M space rocket.

The launch took place on June 15, 1976, 1:19 p.m. from 132/2.

For more information about the launch, click the button.

Launch to space Kosmos-3M | Strela-1M 113-120
Kosmos-3M | Strela-1M 113-120

Agency: N/A

Status: Launch Successful

Launch date: June 15, 1976, 1:19 p.m. UTC

Rocket: Kosmos-3M

Launch pad: 132/2

Location: Plesetsk Cosmodrome, Russian Federation

...

Latest news about this satellite

There are no fresh news available about this satellite. Check back as we update our databases every day.


Newsletter sign-up

Weekly statistics, charts and insights to help you stay on top of the space industry.